LA6JKA Spydeberg NO current weather conditions

sailwx.info

Wind from 240

Air temperature 9.4° C
Dewpoint 7.9° C

Last reported at 2019-Sep-21 21:01 UTC.
Time now 2019-Sep-21 22:10 UTC

Location: N 59°37' E 011°06'.
View on Google Maps.

See reports from other nearby stations

  
Tides and Currents Weather Stations Pressure Air Temp Water Temp Dewpoint Dewpoint Depression Visibility Wind Speed Wind Dir Waves Ship Positions
date/time (UTC)wind fromknots sea level pressurealtimeterstation pressurevisibilityair tempwater tempwave heightnotes
2019-Sep-21 21:01 240 9.4
2019-Sep-21 20:45 240 9.4
2019-Sep-21 20:31 240 9.4
2019-Sep-21 20:16 238 0 gusting 1 10.0
2019-Sep-21 20:01 175 10.6
2019-Sep-21 19:47 175 11.7
2019-Sep-21 19:31 175 12.2
2019-Sep-21 19:15 181 12.2
2019-Sep-21 19:01 180 12.8
2019-Sep-21 18:45 092 13.3
2019-Sep-21 18:30 210 13.9
2019-Sep-21 18:15 188 14.4
2019-Sep-21 18:02 209 0 gusting 1 15.0
2019-Sep-21 17:46 194 0 gusting 4 15.0
2019-Sep-21 17:30 201 15.6
2019-Sep-21 17:15 172 16.7
2019-Sep-21 17:00 163 17.2
2019-Sep-21 16:46 198 0 gusting 3 18.3
2019-Sep-21 16:30 196 1 gusting 4 18.9
2019-Sep-21 16:15 223 2 gusting 6 20.6
2019-Sep-21 16:00 190 3 gusting 6 21.1
2019-Sep-21 15:45 202 2 gusting 6 21.7
2019-Sep-21 15:30 221 4 gusting 7 21.7
2019-Sep-21 15:15 223 4 gusting 8 22.2
2019-Sep-21 15:02 254 2 gusting 6 22.2
2019-Sep-21 14:45 194 4 gusting 8 22.8
2019-Sep-21 14:30 221 3 gusting 8 23.9
2019-Sep-21 14:15 257 3 gusting 7 23.9
2019-Sep-21 14:00 215 5 gusting 8 23.9
2019-Sep-21 13:45 221 5 gusting 8 24.4
2019-Sep-21 13:30 205 1 gusting 4 25.0
2019-Sep-21 13:15 224 0 gusting 4 24.4
2019-Sep-21 13:00 213 3 gusting 6 23.9
2019-Sep-21 12:45 242 23.9
2019-Sep-21 12:30 201 2 gusting 6 23.3
2019-Sep-21 12:15 240 0 gusting 4 22.8
2019-Sep-21 12:01 245 2 gusting 7 22.2
2019-Sep-21 11:46 263 2 gusting 6 22.2
2019-Sep-21 11:31 271 0 gusting 5 21.7
2019-Sep-21 11:17 322 1 gusting 6 21.7
2019-Sep-21 11:01 220 0 gusting 3 21.1
2019-Sep-21 10:47 298 1 gusting 4 20.6
2019-Sep-21 10:31 318 1 gusting 4 20.0
2019-Sep-21 10:17 035 19.4
2019-Sep-21 10:01 301 18.9
2019-Sep-21 09:46 005 18.9
2019-Sep-21 09:31 224 18.3
2019-Sep-21 09:16 167 17.8
2019-Sep-21 09:00 088 16.7
2019-Sep-21 08:45 198 15.6
2019-Sep-21 08:31 194 14.4
2019-Sep-21 08:15 196 12.8
2019-Sep-21 08:00 173 0 gusting 2 11.7
2019-Sep-21 07:45 015 10.0
2019-Sep-21 07:30 015 8.3
2019-Sep-21 07:15 015 7.2
2019-Sep-21 07:00 015 6.7
2019-Sep-21 06:45 015 6.1
2019-Sep-21 06:31 015 5.6
2019-Sep-21 06:16 015 5.0
2019-Sep-21 06:02 015 4.4
2019-Sep-21 05:47 015 0 gusting 1 4.4
2019-Sep-21 05:31 329 3.9
2019-Sep-21 05:16 329 3.9
2019-Sep-21 05:01 329 3.9
2019-Sep-21 04:47 328 3.9
2019-Sep-21 04:31 328 0 gusting 1 4.4
2019-Sep-21 04:16 329 3.9
2019-Sep-21 04:02 303 0 gusting 1 3.9
2019-Sep-21 03:46 303 3.9
2019-Sep-21 03:32 303 4.4
2019-Sep-21 03:16 303 4.4
2019-Sep-21 03:01 303 5.0
2019-Sep-21 02:46 303 5.0
2019-Sep-21 02:31 303 5.0
2019-Sep-21 02:16 303 5.0
2019-Sep-21 02:00 303 5.6
2019-Sep-21 01:45 303 5.6
2019-Sep-21 01:30 303 0 gusting 1 6.1
2019-Sep-21 01:15 198 6.1
2019-Sep-21 01:01 194 6.1
2019-Sep-21 00:45 142 6.7
2019-Sep-21 00:30 037 6.7
2019-Sep-21 00:15 037 6.7
2019-Sep-21 00:00 023 0 gusting 2 7.2
2019-Sep-20 23:45 074 7.2
2019-Sep-20 23:30 074 7.2
2019-Sep-20 23:15 074 7.8
2019-Sep-20 23:00 074 7.8
2019-Sep-20 22:45 074 8.3
2019-Sep-20 22:30 074 8.3
2019-Sep-20 22:15 072 8.9
2019-Sep-20 22:02 072 9.4
2019-Sep-20 21:46 072 9.4
2019-Sep-20 21:32 073 10.0
2019-Sep-20 21:17 046 10.6
2019-Sep-20 21:02 076 10.6
2019-Sep-20 20:48 076 11.1
2019-Sep-20 20:32 067 0 gusting 2 11.1
2019-Sep-20 20:16 034 11.7
2019-Sep-20 20:02 024 12.2
2019-Sep-20 19:47 322 0 gusting 1 12.2
2019-Sep-20 19:32 315 12.8
2019-Sep-20 19:16 284 0 gusting 4 12.2
2019-Sep-20 19:01 136 12.8
2019-Sep-20 18:48 193 13.9
2019-Sep-20 18:31 309 0 gusting 4 14.4
2019-Sep-20 18:16 276 14.4
2019-Sep-20 18:01 134 14.4
2019-Sep-20 17:47 148 0 gusting 3 15.0
2019-Sep-20 17:31 199 1 gusting 4 15.6
2019-Sep-20 17:16 238 16.1
2019-Sep-20 17:01 259 16.7
2019-Sep-20 16:46 248 2 gusting 6 17.2
2019-Sep-20 16:32 199 1 gusting 5 18.3
2019-Sep-20 16:17 246 2 gusting 6 18.3
2019-Sep-20 16:01 230 4 gusting 8 18.3
2019-Sep-20 15:46 229 6 gusting 9 19.4
2019-Sep-20 15:31 242 3 gusting 8 20.6
2019-Sep-20 15:16 194 1 gusting 10 20.6
2019-Sep-20 15:02 223 5 gusting 8 20.6
2019-Sep-20 14:46 244 4 gusting 10 20.6
2019-Sep-20 14:31 233 5 gusting 9 20.6
2019-Sep-20 14:16 234 5 gusting 10 20.6
2019-Sep-20 14:01 203 4 gusting 10 20.6
2019-Sep-20 13:45 258 4 gusting 11 20.0
2019-Sep-20 13:31 203 4 gusting 9 20.0
2019-Sep-20 13:15 198 5 gusting 9 19.4
2019-Sep-20 13:00 197 6 gusting 9 19.4
2019-Sep-20 12:45 209 2 gusting 7 19.4
2019-Sep-20 12:30 234 6 gusting 11 18.9
2019-Sep-20 12:16 175 4 gusting 11 18.3
2019-Sep-20 12:00 169 6 gusting 11 17.8
2019-Sep-20 11:45 202 6 gusting 12 17.8
2019-Sep-20 11:30 215 3 gusting 8 17.8
2019-Sep-20 11:15 159 5 gusting 9 17.2
2019-Sep-20 11:00 277 6 gusting 10 16.7
2019-Sep-20 10:45 221 2 gusting 8 16.7
2019-Sep-20 10:32 239 6 gusting 9 16.1
2019-Sep-20 10:17 155 3 gusting 7 15.0
2019-Sep-20 10:02 202 1 gusting 8 15.0
2019-Sep-20 09:46 163 3 gusting 6 15.0
2019-Sep-20 09:32 170 2 gusting 6 13.9
2019-Sep-20 09:16 166 1 gusting 4 12.8
2019-Sep-20 09:01 229 1 gusting 4 11.7
2019-Sep-20 08:45 169 0 gusting 3 11.1
2019-Sep-20 08:31 158 0 gusting 4 9.4
2019-Sep-20 08:15 190 0 gusting 2 8.3
2019-Sep-20 08:00 215 8.3
2019-Sep-20 07:45 193 7.8
2019-Sep-20 07:30 080 7.2
2019-Sep-20 07:15 080 7.2
2019-Sep-20 07:00 079 6.7
2019-Sep-20 06:45 079 6.1
2019-Sep-20 06:30 079 6.1
2019-Sep-20 06:15 078 0 gusting 1 5.6
2019-Sep-20 06:00 350 5.6
2019-Sep-20 05:45 350 5.0
2019-Sep-20 05:30 350 5.0
2019-Sep-20 05:15 302 5.0
2019-Sep-20 05:00 302 5.6
2019-Sep-20 04:45 302 5.6
2019-Sep-20 04:31 302 5.6
2019-Sep-20 04:16 302 6.1
2019-Sep-20 04:01 302 6.1
2019-Sep-20 03:46 302 6.1
2019-Sep-20 03:31 302 6.1
2019-Sep-20 03:16 236 6.1
2019-Sep-20 03:01 236 6.7
2019-Sep-20 02:46 236 6.7
2019-Sep-20 02:31 236 6.7
2019-Sep-20 02:16 236 6.7
2019-Sep-20 02:03 236 6.7
2019-Sep-20 01:46 236 6.7
2019-Sep-20 01:31 236 6.7
2019-Sep-20 01:16 236 6.7
2019-Sep-20 01:01 240 6.7
2019-Sep-20 00:46 240 6.7
2019-Sep-20 00:31 240 6.1
2019-Sep-20 00:15 240 6.1
2019-Sep-20 00:01 240 6.1
2019-Sep-19 23:46 240 6.1
2019-Sep-19 23:30 240 6.1
2019-Sep-19 23:16 240 6.1
2019-Sep-19 23:01 240 6.1
2019-Sep-19 22:45 240 6.1
2019-Sep-19 22:30 240 6.1
2019-Sep-19 22:15 240 5.6
2019-Sep-19 22:00 240 5.6